Stations météo

réclame
Mon MeteoGroup
Tortosa, Espagne (8238): Température de l'air & dewpoint: 13.11.2017 20:00:00 - 19.11.2017 20:00:00 (CET)Tortosa, Espagne (8238): Vitesse du vent & gusts: 13.11.2017 20:00:00 - 19.11.2017 20:00:00 (CET)Tortosa, Espagne (8238): Direction du vent: 13.11.2017 20:00:00 - 19.11.2017 20:00:00 (CET)Tortosa, Espagne (8238): reduced air pressure: 13.11.2017 20:00:00 - 19.11.2017 20:00:00 (CET)Tortosa, Espagne (8238): visibility: 13.11.2017 20:00:00 - 19.11.2017 20:00:00 (CET)Tortosa, Espagne (8238): Quantités de précipitations: 13.11.2017 20:00:00 - 19.11.2017 20:00:00 (CET)
Date & Time tt [°C] td [°C] ff [km/h] ff [knt] fx [km/h] fx [knt] dd ppp [hPa] vv [km] rr [mm]
19.11.2017 20:00:00 10,8 4,3 8 4 - - NW 1022,4 20 0,0
19.11.2017 19:00:00 12,7 6,7 4 2 - - S 1021,8 10 -
19.11.2017 18:00:00 14,5 6,8 5 3 - - S 1021,2 20 0,0
19.11.2017 17:00:00 18,3 6,2 8 4 - - SSE 1020,7 20 0,0
19.11.2017 16:00:00 19,6 1,1 11 6 - - NNE 1020,4 10 -
19.11.2017 15:00:00 20,2 2,1 13 7 - - NNE 1020,3 20 0,0
19.11.2017 14:00:00 20,6 3,3 13 7 - - NNE 1020,6 20 0,0
19.11.2017 13:00:00 19,8 3,0 16 9 - - NNE 1021,3 12 -
19.11.2017 12:00:00 18,5 3,9 15 8 - - N 1021,9 20 0,0
19.11.2017 11:00:00 16,4 3,1 15 8 - - N 1022,4 20 0,0
19.11.2017 10:00:00 14,1 3,5 15 8 - - N 1022,5 10 -
19.11.2017 09:00:00 11,5 3,3 9 5 - - N 1022,4 20 0,0
19.11.2017 08:00:00 9,2 2,5 9 5 - - NNW 1021,7 20 0,0
19.11.2017 07:00:00 9,8 2,6 11 6 - - N 1021,1 20 -
19.11.2017 06:00:00 10,1 3,1 13 7 - - N 1021,2 20 0,0
19.11.2017 05:00:00 10,0 3,9 11 6 - - N 1021,0 20 0,0
19.11.2017 04:00:00 9,6 4,2 11 6 - - N 1021,2 20 -
19.11.2017 03:00:00 6,8 4,1 8 4 - - NNW 1021,2 20 0,0
19.11.2017 02:00:00 6,9 4,0 2 1 - - NW 1021,2 20 0,0
19.11.2017 01:00:00 7,8 4,2 2 1 - - ENE 1021,6 20 -
19.11.2017 00:00:00 8,4 4,2 5 3 - - NNE 1022,2 20 0,0
18.11.2017 23:00:00 9,0 4,2 2 1 - - ESE 1022,0 20 0,0
18.11.2017 22:00:00 9,7 4,1 4 2 - - NNW 1021,9 20 -
18.11.2017 21:00:00 11,5 4,5 5 3 - - NNW 1021,6 20 0,0
18.11.2017 20:00:00 12,4 5,1 4 2 - - SSE 1021,3 19 0,0
18.11.2017 19:00:00 14,3 5,1 4 2 - - ESE 1020,8 10 -
18.11.2017 18:00:00 16,2 5,2 5 3 - - S 1020,2 20 0,0
18.11.2017 17:00:00 19,5 3,6 5 3 - - N 1019,4 20 0,0
18.11.2017 16:00:00 20,8 4,4 11 6 - - NNE 1018,9 8 -
18.11.2017 15:00:00 21,4 4,0 9 5 - - NNE 1019,0 20 0,0
18.11.2017 14:00:00 21,7 3,8 13 7 - - N 1019,5 20 0,0
18.11.2017 13:00:00 21,4 4,5 13 7 - - NNE 1019,7 8 -
18.11.2017 12:00:00 20,2 4,2 9 5 - - NNE 1020,3 20 0,0
18.11.2017 11:00:00 18,5 3,9 15 8 - - NNE 1020,4 20 0,0
18.11.2017 10:00:00 16,5 3,9 11 6 - - NNE 1020,3 8 -
18.11.2017 09:00:00 13,2 3,5 13 7 - - NNE 1020,1 20 0,0
18.11.2017 08:00:00 11,1 2,6 5 3 - - NW 1019,8 20 0,0
18.11.2017 07:00:00 11,4 2,9 13 7 - - N 1019,5 20 -
18.11.2017 06:00:00 11,4 2,9 11 6 - - N 1019,4 20 0,0
18.11.2017 05:00:00 10,0 2,8 9 5 - - N 1019,2 20 0,0
18.11.2017 04:00:00 6,4 2,5 9 5 - - N 1019,3 20 -
18.11.2017 03:00:00 6,9 3,3 4 2 - - ESE 1019,5 20 0,0
18.11.2017 02:00:00 7,0 2,5 2 1 - - W 1019,7 20 0,0
18.11.2017 01:00:00 7,6 2,1 5 3 - - NNW 1020,2 20 -
18.11.2017 00:00:00 7,9 4,5 4 2 - - N 1020,3 13 0,0
17.11.2017 23:00:00 9,4 4,8 2 1 - - ENE 1020,1 14 0,0
17.11.2017 22:00:00 9,9 5,5 2 1 - - E 1019,9 14 -
17.11.2017 21:00:00 11,0 4,7 5 3 - - NW 1019,5 20 0,0
17.11.2017 20:00:00 12,3 7,8 4 2 - - NNW 1019,4 13 0,0
17.11.2017 19:00:00 13,8 9,0 2 1 - - NE 1019,0 8 -
17.11.2017 18:00:00 15,8 8,8 5 3 - - SSW 1018,6 20 0,0
17.11.2017 17:00:00 19,7 9,0 8 4 - - S 1018,3 20 0,0
17.11.2017 16:00:00 21,7 7,1 5 3 - - S 1018,4 5 -
17.11.2017 15:00:00 22,3 3,9 5 3 - - SSW 1018,8 20 0,0
17.11.2017 14:00:00 22,0 3,6 5 3 - - S 1019,3 20 0,0
17.11.2017 13:00:00 20,9 4,4 8 4 - - S 1020,1 8 -
17.11.2017 12:00:00 19,0 3,6 4 2 - - ESE 1020,8 20 0,0
17.11.2017 11:00:00 15,6 4,3 4 2 - - SE 1021,3 13 0,0
17.11.2017 10:00:00 11,6 3,1 2 1 - - S 1021,2 2,0 -
17.11.2017 09:00:00 7,6 1,6 0 0 - - N 1021,3 19 0,0
17.11.2017 08:00:00 4,5 0,6 5 3 - - NNE 1021,0 20 0,0
17.11.2017 07:00:00 4,4 0,5 5 3 - - N 1020,5 20 -
17.11.2017 06:00:00 4,7 0,5 4 2 - - NNE 1020,4 20 0,0
17.11.2017 05:00:00 5,1 0,5 4 2 - - NE 1020,6 20 0,0
17.11.2017 04:00:00 6,0 0,7 4 2 - - N 1021,0 20 -
17.11.2017 03:00:00 6,4 0,9 5 3 - - N 1021,1 20 0,0
17.11.2017 02:00:00 6,7 1,6 8 4 - - N 1021,2 20 0,0
17.11.2017 01:00:00 6,3 2,0 5 3 - - N 1021,7 20 -
17.11.2017 00:00:00 6,5 3,1 5 3 - - N 1021,7 20 0,0
16.11.2017 23:00:00 7,1 4,1 5 3 - - NNW 1021,5 20 0,0
16.11.2017 22:00:00 7,7 4,1 4 2 - - N 1021,3 20 -
16.11.2017 21:00:00 8,8 4,0 4 2 - - N 1021,1 20 0,0
16.11.2017 20:00:00 9,9 4,5 5 3 - - NNW 1021,0 19 0,0
16.11.2017 19:00:00 12,9 6,5 4 2 - - WSW 1020,6 5 -
16.11.2017 18:00:00 14,5 7,1 5 3 - - SSW 1020,0 20 0,0
16.11.2017 17:00:00 17,5 7,2 5 3 - - S 1020,1 20 0,0
16.11.2017 16:00:00 18,9 7,0 8 4 - - SE 1019,9 5 -
16.11.2017 15:00:00 20,0 1,9 5 3 - - S 1019,9 20 0,0
16.11.2017 14:00:00 19,2 2,9 4 2 - - SE 1020,4 20 0,0
16.11.2017 13:00:00 17,9 2,2 4 2 - - N 1021,2 5 -
16.11.2017 12:00:00 15,9 0,0 9 5 - - N 1022,0 16 0,0
16.11.2017 11:00:00 14,3 0,2 11 6 - - N 1022,1 19 0,0
16.11.2017 10:00:00 11,1 -0,1 8 4 - - N 1021,6 8 -
16.11.2017 09:00:00 6,8 0,2 5 3 - - N 1021,3 20 0,0
16.11.2017 08:00:00 3,6 -0,6 4 2 - - N 1020,9 20 0,0
16.11.2017 07:00:00 4,1 -0,3 8 4 - - N 1020,3 10 -
16.11.2017 06:00:00 4,1 -0,5 5 3 - - N 1020,0 20 0,0
16.11.2017 05:00:00 4,3 -0,3 4 2 - - N 1019,8 20 0,0
16.11.2017 04:00:00 4,6 -0,4 5 3 - - N 1019,9 20 -
16.11.2017 03:00:00 5,2 0,0 8 4 - - N 1020,2 20 0,0
16.11.2017 02:00:00 5,0 0,0 5 3 - - N 1020,1 20 0,0
16.11.2017 01:00:00 5,2 0,2 5 3 - - N 1020,2 20 -
16.11.2017 00:00:00 5,7 0,5 8 4 - - NNW 1020,3 20 0,0
15.11.2017 23:00:00 6,5 1,4 8 4 - - NNW 1020,4 20 0,0
15.11.2017 22:00:00 7,5 2,0 5 3 - - N 1020,4 20 -
15.11.2017 21:00:00 8,6 2,4 8 4 - - NW 1020,0 20 0,0
15.11.2017 20:00:00 10,0 3,0 8 4 - - NW 1019,6 20 0,0
15.11.2017 19:00:00 12,0 4,2 4 2 - - SSE 1019,1 20 -
15.11.2017 18:00:00 12,9 3,3 5 3 - - SW 1018,5 20 0,0
15.11.2017 17:00:00 15,6 2,7 8 4 - - SSE 1017,9 20 0,0
15.11.2017 16:00:00 19,1 2,0 5 3 - - S 1017,8 10 -
15.11.2017 15:00:00 19,1 -1,4 5 3 - - N 1018,0 20 0,0
15.11.2017 14:00:00 18,4 -2,0 5 3 - - NNW 1018,5 20 0,0
15.11.2017 13:00:00 18,0 -0,8 8 4 - - NNW 1019,0 12 -
15.11.2017 12:00:00 16,5 -0,7 9 5 - - N 1020,3 20 0,0
15.11.2017 11:00:00 14,5 -1,2 11 6 - - N 1020,9 20 0,0
15.11.2017 10:00:00 12,4 -0,8 8 4 - - NNW 1021,2 8 -
15.11.2017 09:00:00 10,2 -1,2 9 5 - - NNW 1020,8 20 0,0
15.11.2017 08:00:00 7,2 -2,3 8 4 - - WNW 1020,5 20 0,0
15.11.2017 07:00:00 7,1 -1,8 8 4 - - NW 1019,9 15 -
15.11.2017 06:00:00 7,5 -1,7 13 7 - - N 1019,8 20 0,0
15.11.2017 05:00:00 7,6 -2,2 8 4 - - WNW 1020,0 20 0,0
15.11.2017 04:00:00 7,4 -2,1 5 3 - - NW 1020,0 20 -
15.11.2017 03:00:00 8,0 -2,1 8 4 - - NW 1020,6 20 0,0
15.11.2017 02:00:00 7,7 -1,8 11 6 - - N 1020,7 20 0,0
15.11.2017 01:00:00 7,6 -1,6 11 6 - - N 1020,9 20 -
15.11.2017 00:00:00 6,4 -1,3 4 2 - - N 1021,3 20 0,0
14.11.2017 23:00:00 7,4 -1,3 4 2 - - N 1021,5 20 0,0
14.11.2017 22:00:00 8,1 0,1 5 3 - - N 1021,4 20 -
14.11.2017 21:00:00 9,5 1,1 5 3 - - NNE 1020,9 20 0,0
14.11.2017 20:00:00 10,8 1,6 5 3 - - N 1020,6 20 0,0
14.11.2017 19:00:00 12,2 1,2 5 3 - - WSW 1020,0 12 -
14.11.2017 18:00:00 13,7 0,7 9 5 - - SW 1019,4 20 0,0
14.11.2017 17:00:00 15,7 -2,3 11 6 - - NW 1018,4 20 0,0
14.11.2017 16:00:00 17,4 -2,3 15 8 - - WNW 1018,1 10 -
14.11.2017 15:00:00 17,6 -2,2 11 6 - - WNW 1017,9 20 0,0
14.11.2017 14:00:00 17,1 -2,6 13 7 - - WNW 1018,4 20 0,0
14.11.2017 13:00:00 16,0 -2,5 22 12 - - WNW 1018,8 12 -
14.11.2017 12:00:00 16,0 -1,6 15 8 - - NNW 1018,9 20 0,0
14.11.2017 11:00:00 13,8 -2,2 18 10 - - NW 1019,3 20 0,0
14.11.2017 10:00:00 12,3 -2,4 16 9 - - NW 1019,4 8 -
14.11.2017 09:00:00 10,8 -2,6 21 11 - - NW 1019,0 20 0,0
14.11.2017 08:00:00 9,7 -2,6 26 14 - - NW 1018,3 20 0,0
14.11.2017 07:00:00 9,7 -2,6 34 18 - - WNW 1017,4 15 -
14.11.2017 06:00:00 9,3 -2,3 18 10 - - NW 1017,3 20 0,0
14.11.2017 05:00:00 9,4 -2,3 26 14 - - NW 1017,0 20 0,0
14.11.2017 04:00:00 9,5 -1,9 29 16 - - NW 1017,2 20 -
14.11.2017 03:00:00 9,7 -2,0 29 16 - - WNW 1017,4 20 0,0
14.11.2017 02:00:00 9,6 -1,8 24 13 - - NW 1017,5 20 0,0
14.11.2017 01:00:00 9,6 -1,5 24 13 - - NW 1017,4 20 -
14.11.2017 00:00:00 9,9 -1,2 31 17 - - WNW 1017,8 20 0,0
13.11.2017 23:00:00 10,0 -1,4 24 13 - - NW 1017,7 20 0,0
13.11.2017 22:00:00 10,1 -1,9 24 13 - - NW 1017,3 20 -
13.11.2017 21:00:00 10,2 -2,5 18 10 - - NNW 1017,3 20 0,0
13.11.2017 20:00:00 10,9 -2,5 18 10 78 42 NNW 1017,2 20 0,0

tt = Température de l'air
td = dewpoint
ff = Vitesse du vent
fx = gusts
dd = Direction du vent
ppp = reduced air pressure
vv = visibility
rr = Quantités de précipitations

stations d'obs. à proximité